Location: Alta
(39.2070°N, 120.8111°W)
Time: 15:52:18
(UTC+00:00)

COSMOS 2251 DEB - Pass Details

Date: 15 December 2023
Orbit: 643 x 776 km, 74.0° (Epoch: 23 February)

Event Time Altitude Azimuth Distance (km) Brightness Sun altitude
Rises 12:05:51 0° 20° (NNE) 3,008 ? -35.8°
Exits shadow 12:05:51 - 20° (NNE) 3,007 ? -35.8°
Enters shadow 13:16:27 -58° 318° (NW) 11,771 ? -22.3°
Maximum altitude 13:50:57 33° 65° (ENE) 1,093 ? -15.8°
